When you browse on this site, cookies collect data to enhance your experience and personalize the content and advertising you see.
Visit our Privacy Policy to learn more. By continuing to use the site, you agree to this use of cookies and data.

Meteo pe oră la Dzialki

Astăzi, 25 Septembrie, Vineri

Timp Temperatura Precipitaţii Vânt Presiune Umiditate
00:00 +16°C° 0 mm 1 m/s 737 mmHg 79%
01:00 +16°C° 0 mm 1 m/s 737 mmHg 80%
02:00 +16°C° 0 mm 2 m/s 737 mmHg 82%
03:00 +15°C° 0 mm 2 m/s 737 mmHg 84%
04:00 +15°C° 0 mm 2 m/s 736 mmHg 86%
05:00 +16°C° 0 mm 3 m/s 736 mmHg 84%
06:00 +16°C° 0 mm 3 m/s 735 mmHg 82%
07:00 +17°C° 0 mm 4 m/s 735 mmHg 80%
08:00 +17°C° 0 mm 5 m/s 734 mmHg 73%
09:00 +20°C° 0 mm 6 m/s 734 mmHg 66%
10:00 +22°C° 0 mm 6 m/s 734 mmHg 59%
11:00 +23°C° 0 mm 7 m/s 733 mmHg 56%
12:00 +24°C° 0 mm 7 m/s 733 mmHg 52%
13:00 +26°C° 0 mm 7 m/s 732 mmHg 48%
14:00 +24°C° 0 mm 7 m/s 732 mmHg 51%
15:00 +24°C° 0 mm 6 m/s 731 mmHg 54%
16:00 +23°C° 0 mm 5 m/s 731 mmHg 56%
17:00 +22°C° 0.3 mm 5 m/s 731 mmHg 62%
18:00 +20°C° 0.3 mm 5 m/s 731 mmHg 68%
19:00 +19°C° 0.3 mm 5 m/s 731 mmHg 74%
20:00 +19°C° 0.2 mm 5 m/s 731 mmHg 78%
21:00 +17°C° 0.2 mm 6 m/s 731 mmHg 82%
22:00 +17°C° 0.2 mm 6 m/s 731 mmHg 86%
23:00 +16°C° 0.2 mm 5 m/s 730 mmHg 87%

Mâine, 26 Septembrie, Sâmbătă

Timp Temperatura Precipitaţii Vânt Presiune Umiditate
00:00 +17°C° 0.2 mm 4 m/s 730 mmHg 88%
01:00 +17°C° 0.2 mm 3 m/s 729 mmHg 90%
02:00 +16°C° 0 mm 3 m/s 729 mmHg 90%
03:00 +16°C° 0 mm 3 m/s 728 mmHg 90%
04:00 +16°C° 0 mm 3 m/s 728 mmHg 90%
05:00 +17°C° 0 mm 4 m/s 728 mmHg 86%
06:00 +16°C° 0 mm 5 m/s 727 mmHg 81%
07:00 +17°C° 0 mm 5 m/s 727 mmHg 77%
08:00 +17°C° 0.2 mm 5 m/s 727 mmHg 77%
09:00 +17°C° 0.2 mm 5 m/s 727 mmHg 78%
10:00 +19°C° 0.2 mm 4 m/s 728 mmHg 78%
11:00 +18°C° 1.3 mm 4 m/s 728 mmHg 82%
12:00 +18°C° 1.3 mm 4 m/s 728 mmHg 86%
13:00 +17°C° 1.3 mm 4 m/s 728 mmHg 90%
14:00 +17°C° 0.8 mm 4 m/s 728 mmHg 91%
15:00 +17°C° 0.8 mm 4 m/s 728 mmHg 92%
16:00 +17°C° 0.8 mm 4 m/s 729 mmHg 92%
17:00 +16°C° 1.1 mm 3 m/s 729 mmHg 93%
18:00 +16°C° 1.1 mm 2 m/s 729 mmHg 93%
19:00 +15°C° 1.1 mm 2 m/s 729 mmHg 94%
20:00 +14°C° 0.8 mm 2 m/s 730 mmHg 91%
21:00 +12°C° 0.8 mm 3 m/s 730 mmHg 89%
22:00 +11°C° 0.8 mm 3 m/s 730 mmHg 87%
23:00 +11°C° 0.6 mm 4 m/s 730 mmHg 87%

Poimâine, 27 Septembrie, Duminică

Timp Temperatura Precipitaţii Vânt Presiune Umiditate
00:00 +11°C° 0.6 mm 4 m/s 730 mmHg 86%
01:00 +10°C° 0.6 mm 4 m/s 730 mmHg 86%
02:00 +10°C° 0.1 mm 4 m/s 731 mmHg 86%
03:00 +10°C° 0.1 mm 4 m/s 731 mmHg 86%
04:00 +10°C° 0.1 mm 4 m/s 731 mmHg 87%
05:00 +8°C° 0.4 mm 5 m/s 731 mmHg 86%
06:00 +8°C° 0.4 mm 5 m/s 730 mmHg 86%
07:00 +8°C° 0.4 mm 6 m/s 730 mmHg 86%
08:00 +6°C° 3.5 mm 7 m/s 730 mmHg 87%
09:00 +6°C° 3.5 mm 7 m/s 730 mmHg 89%
10:00 +6°C° 3.5 mm 7 m/s 731 mmHg 91%
11:00 +6°C° 2.5 mm 7 m/s 731 mmHg 90%
12:00 +6°C° 2.5 mm 7 m/s 731 mmHg 90%
13:00 +6°C° 2.5 mm 7 m/s 731 mmHg 89%
14:00 +8°C° 1 mm 6 m/s 732 mmHg 89%
15:00 +8°C° 1 mm 6 m/s 732 mmHg 89%
16:00 +8°C° 1 mm 6 m/s 733 mmHg 89%
17:00 +8°C° 1.7 mm 6 m/s 734 mmHg 89%
18:00 +8°C° 1.7 mm 6 m/s 734 mmHg 89%
19:00 +8°C° 1.7 mm 6 m/s 735 mmHg 89%
20:00 +8°C° 0.7 mm 5 m/s 735 mmHg 90%
21:00 +8°C° 0.7 mm 5 m/s 736 mmHg 90%
22:00 +8°C° 0.7 mm 4 m/s 737 mmHg 91%
23:00 +8°C° 0.4 mm 4 m/s 737 mmHg 90%

28 Septembrie, Luni

Timp Temperatura Precipitaţii Vânt Presiune Umiditate
00:00 +8°C° 0.4 mm 4 m/s 737 mmHg 88%
01:00 +8°C° 0.4 mm 4 m/s 737 mmHg 87%
02:00 +8°C° 0 mm 4 m/s 737 mmHg 86%
03:00 +8°C° 0 mm 4 m/s 738 mmHg 85%
04:00 +8°C° 0 mm 5 m/s 738 mmHg 84%
05:00 +8°C° 0 mm 4 m/s 738 mmHg 82%
06:00 +8°C° 0 mm 4 m/s 738 mmHg 80%
07:00 +8°C° 0 mm 4 m/s 739 mmHg 78%
08:00 +9°C° 0 mm 5 m/s 739 mmHg 75%
09:00 +10°C° 0 mm 5 m/s 739 mmHg 72%
10:00 +13°C° 0 mm 6 m/s 740 mmHg 69%
11:00 +13°C° 0 mm 5 m/s 740 mmHg 70%
12:00 +13°C° 0 mm 5 m/s 740 mmHg 71%
13:00 +13°C° 0 mm 4 m/s 740 mmHg 72%
14:00 +13°C° 0 mm 4 m/s 740 mmHg 73%
15:00 +13°C° 0 mm 3 m/s 739 mmHg 75%
16:00 +13°C° 0 mm 3 m/s 739 mmHg 76%
17:00 +12°C° 0 mm 3 m/s 739 mmHg 79%
18:00 +12°C° 0 mm 2 m/s 740 mmHg 83%
19:00 +12°C° 0 mm 2 m/s 740 mmHg 86%
20:00 +12°C° 0 mm 2 m/s 740 mmHg 88%
21:00 +10°C° 0 mm 2 m/s 740 mmHg 90%
22:00 +10°C° 0 mm 2 m/s 740 mmHg 92%
23:00 +10°C° 0 mm 2 m/s 740 mmHg 92%

29 Septembrie, Marţi

Timp Temperatura Precipitaţii Vânt Presiune Umiditate
00:00 +11°C° 0 mm 1 m/s 740 mmHg 92%
01:00 +11°C° 0 mm 1 m/s 740 mmHg 92%
02:00 +11°C° 0 mm 1 m/s 739 mmHg 92%
03:00 +11°C° 0 mm 1 m/s 739 mmHg 92%
04:00 +10°C° 0 mm 0 m/s 739 mmHg 92%
05:00 +10°C° 0 mm 0 m/s 739 mmHg 89%
06:00 +11°C° 0 mm 1 m/s 739 mmHg 87%
07:00 +12°C° 0 mm 1 m/s 739 mmHg 85%
08:00 +13°C° 0 mm 1 m/s 739 mmHg 79%
09:00 +14°C° 0 mm 1 m/s 739 mmHg 74%
10:00 +15°C° 0 mm 1 m/s 739 mmHg 68%
11:00 +16°C° 0 mm 1 m/s 739 mmHg 63%
12:00 +18°C° 0 mm 1 m/s 739 mmHg 59%
13:00 +19°C° 0 mm 1 m/s 739 mmHg 54%
14:00 +18°C° 0.1 mm 1 m/s 739 mmHg 58%
15:00 +17°C° 0.1 mm 2 m/s 739 mmHg 63%
16:00 +16°C° 0.1 mm 2 m/s 739 mmHg 67%
17:00 +15°C° 0.2 mm 2 m/s 739 mmHg 73%
18:00 +14°C° 0.2 mm 2 m/s 739 mmHg 80%
19:00 +13°C° 0.2 mm 2 m/s 739 mmHg 87%
20:00 +12°C° 0.1 mm 2 m/s 739 mmHg 88%
21:00 +12°C° 0.1 mm 2 m/s 739 mmHg 89%
22:00 +12°C° 0.1 mm 2 m/s 740 mmHg 90%
23:00 +12°C° 0 mm 2 m/s 740 mmHg 92%

30 Septembrie, Miercuri

Timp Temperatura Precipitaţii Vânt Presiune Umiditate
00:00 +10°C° 0 mm 2 m/s 739 mmHg 93%
01:00 +10°C° 0 mm 2 m/s 739 mmHg 94%
02:00 +10°C° 0 mm 3 m/s 739 mmHg 94%
03:00 +10°C° 0 mm 3 m/s 739 mmHg 94%
04:00 +10°C° 0 mm 3 m/s 739 mmHg 94%
05:00 +10°C° 0 mm 4 m/s 739 mmHg 92%
06:00 +11°C° 0 mm 4 m/s 739 mmHg 89%
07:00 +10°C° 0 mm 5 m/s 739 mmHg 86%
08:00 +11°C° 0.1 mm 6 m/s 739 mmHg 86%
09:00 +11°C° 0.1 mm 6 m/s 739 mmHg 86%
10:00 +12°C° 0.1 mm 7 m/s 738 mmHg 86%
11:00 +11°C° 0.7 mm 7 m/s 738 mmHg 88%
12:00 +11°C° 0.7 mm 7 m/s 738 mmHg 89%
13:00 +11°C° 0.7 mm 8 m/s 737 mmHg 91%
14:00 +11°C° 1 mm 7 m/s 737 mmHg 91%
15:00 +12°C° 1 mm 7 m/s 737 mmHg 91%
16:00 +12°C° 1 mm 7 m/s 737 mmHg 92%
17:00 +13°C° 1.8 mm 6 m/s 737 mmHg 93%
18:00 +12°C° 1.8 mm 5 m/s 737 mmHg 94%
19:00 +12°C° 1.8 mm 5 m/s 737 mmHg 95%
20:00 +12°C° 0.9 mm 5 m/s 737 mmHg 95%
21:00 +12°C° 0.9 mm 5 m/s 737 mmHg 95%
22:00 +12°C° 0.9 mm 5 m/s 737 mmHg 95%
23:00 +12°C° 0.9 mm 4 m/s 737 mmHg 95%
Arată mai mult